Location: Nassau
(25.0830°N, 77.3500°W)
Time: 07:53:08
(UTC-04:00)

ISS - All Passes

Search period start: 23 May 2015 00:00
Search period end: 02 June 2015 00:00
Orbit: 399 x 404 km, 51.6° (Epoch: 23 May)

Date Brightness Start Highest point End Pass type
(mag) Time Alt. Az. Time Alt. Az. Time Alt. Az.
23 May - 01:05:34 10° WSW 01:08:21 26° NW 01:11:08 10° NNE night (unlit)
23 May - 09:15:20 10° NW 09:18:34 66° NE 09:21:49 10° SE daylight
24 May - 00:11:54 10° SW 00:15:07 65° NW 00:18:19 10° NE night (unlit)
24 May - 08:22:31 10° NNW 08:25:19 26° NE 08:28:09 10° ESE daylight
24 May - 09:59:42 10° W 10:01:34 14° SW 10:03:20 10° SSW daylight
24 May - 23:18:52 10° SSW 23:21:56 43° SE 23:25:02 10° NE night (unlit)
25 May - 00:57:43 10° NW 00:58:33 11° NW 00:59:15 10° NNW night (unlit)
25 May - 07:30:23 10° NNE 07:31:54 13° NE 07:33:33 10° ENE daylight
25 May - 09:05:26 10° WNW 09:08:26 34° SW 09:11:25 10° SSE daylight
25 May - 22:26:36 10° S 22:28:47 17° SE 22:31:03 10° E night (unlit)
26 May - 00:02:29 10° W 00:05:05 21° NW 00:07:38 10° N night (unlit)
26 May - 08:11:59 10° NW 08:15:15 85° NE 08:18:30 10° SE daylight
26 May - 23:08:35 10° SW 23:11:44 51° NW 23:14:54 10° NNE night (unlit)
27 May - 07:18:59 10° NNW 07:21:56 32° NE 07:24:55 10° ESE daylight
27 May - 08:56:57 10° WSW 08:58:08 11° SW 08:59:11 10° SW daylight
27 May - 22:15:19 10° SSW 22:18:28 56° SE 22:21:39 10° NE night (unlit)
28 May - 06:26:31 10° N 06:28:29 15° NE 06:30:31 10° E daylight
28 May - 08:02:06 10° WNW 08:04:55 27° SW 08:07:44 10° S daylight
28 May - 21:22:44 10° S 21:25:14 21° SE 21:27:48 10° ENE night (unlit)
28 May - 22:59:15 10° W 23:01:36 18° NW 23:03:54 10° N night (unlit)
29 May - 07:08:25 10° NW 07:11:40 75° SW 07:14:55 10° SE daylight
29 May - 22:05:04 10° WSW 22:08:08 40° NW 22:11:12 10° NNE night (unlit)
30 May - 06:15:15 10° NNW 06:18:19 39° NE 06:21:24 10° ESE daylight
30 May - 21:11:34 10° SW 21:14:47 72° SE 21:18:00 10° NE visible
31 May - 05:22:33 10° N 05:24:49 18° NE 05:27:10 10° E visible
31 May - 06:58:34 10° WNW 07:01:12 22° SW 07:03:46 10° S daylight
31 May - 20:18:44 10° S 20:21:28 26° SE 20:24:14 10° ENE visible
31 May - 21:55:50 10° W 21:57:53 15° NW 21:59:52 10° N visible
01 Jun - 06:04:40 10° NW 06:07:52 59° SW 06:11:04 10° SSE daylight
01 Jun - 19:27:22 10° SE 19:28:08 11° SE 19:29:04 10° ESE daylight
01 Jun - 21:01:22 10° WSW 21:04:19 33° NW 21:07:17 10° NNE visible
